Weather History for KAPF - February, 2015

Change the Weather History Date:

Tuesday, February 10, 2015

  Actual Average Record
Temperature  
Mean Temperature 62 °F 66 °F  
Max Temperature 69 °F 76 °F 85 °F (1959)
Min Temperature 55 °F 56 °F 35 °F (1976)
Degree Days  
Heating Degree Days 3 2  
Month to date heating degree days 4 20  
Since 1 July heating degree days 121 200  
Cooling Degree Days 0 4  
Month to date cooling degree days 15 30  
Year to date cooling degree days 132 116  
Growing Degree Days 12 (Base 50)    
Moisture  
Dew Point 58 °F    
Average Humidity 82    
Maximum Humidity 100    
Minimum Humidity 63    
Precipitation  
Precipitation 0.00 in 0.06 in 0.62 in (1962)
Month to date precipitation 1.22 0.71  
Year to date precipitation 1.32 2.56  
Snow  
Snow 0.00 in - - ()
Month to date snowfall 0.0  
Since 1 July snowfall 0.0  
Snow Depth 0.00 in    
Sea Level Pressure  
Sea Level Pressure 29.80 in    
Wind  
Wind Speed 11 mph (NW)    
Max Wind Speed 25 mph    
Max Gust Speed 32 mph    
Visibility 9 miles    
Events      
T = Trace of Precipitation, MM = Missing Value Source: NWS Daily Summary

Daily Weather History Graph

Daily Weather History Graph

Search for Another Location

Airport or City:

Trip Planner

Search our weather history database for the weather conditions in past years. The results will help you decide how hot, cold, wet, or windy it might be!

Date:

Astronomy

Feb. 10, 2015 Rise Set
Actual Time 7:06 AM EST 6:16 PM EST
Civil Twilight 6:42 AM EST 6:40 PM EST
Nautical Twilight 6:15 AM EST 7:07 PM EST
Astronomical Twilight 5:48 AM EST 7:34 PM EST
Moon No Moon Rise 10:54 AM EST (2/10)
Length of Visible Light 11h 57m
Length of Day
11h 10m
Waning Gibbous, 64% of the Moon is Illuminated
Feb 10
Waning Gibbous
Feb 11
Last Quarter
Feb 18
New
Feb 25
First Quarter
Mar 5
Full

Hourly Weather History & Observations

Time (EST) Temp. Dew Point Humidity Pressure Visibility Wind Dir Wind Speed Gust Speed Precip Events Conditions
12:08 AM 64.0 °F 62.1 °F 93% 29.79 in 10.0 mi NW 10.4 mph - N/A   Overcast
12:29 AM 64.0 °F 62.1 °F 93% 29.79 in 10.0 mi NW 9.2 mph - N/A   Overcast
12:37 AM 64.0 °F 61.0 °F 90% 29.79 in 10.0 mi NW 6.9 mph - N/A   Overcast
12:51 AM 62.6 °F 60.8 °F 94% 29.78 in 10.0 mi NW 8.1 mph - N/A   Overcast
12:53 AM 63.0 °F 61.0 °F 93% 29.78 in 10.0 mi NW 9.2 mph - N/A   Overcast
1:38 AM 64.0 °F 61.0 °F 90% 29.78 in 10.0 mi NW 8.1 mph - N/A   Overcast
1:45 AM 64.0 °F 60.1 °F 87% 29.78 in 10.0 mi NW 10.4 mph 18.4 mph N/A   Overcast
1:53 AM 64.0 °F 60.1 °F 87% 29.78 in 10.0 mi NW 11.5 mph - N/A   Mostly Cloudy
2:42 AM 63.0 °F 60.1 °F 90% 29.77 in 10.0 mi NW 8.1 mph - N/A   Mostly Cloudy
2:53 AM 63.0 °F 60.1 °F 90% 29.77 in 10.0 mi NW 4.6 mph - N/A   Mostly Cloudy
3:28 AM 62.1 °F 60.1 °F 93% 29.76 in 10.0 mi NW 8.1 mph - N/A   Scattered Clouds
3:53 AM 62.1 °F 59.0 °F 90% 29.75 in 10.0 mi NW 6.9 mph - N/A   Partly Cloudy
4:31 AM 62.1 °F 60.1 °F 93% 29.76 in 10.0 mi NW 5.8 mph - N/A   Mostly Cloudy
4:53 AM 63.0 °F 61.0 °F 93% 29.75 in 10.0 mi NW 6.9 mph - N/A   Overcast
5:22 AM 62.1 °F 61.0 °F 96% 29.76 in 10.0 mi WNW 5.8 mph - N/A   Scattered Clouds
5:53 AM 62.1 °F 61.0 °F 96% 29.76 in 10.0 mi WNW 3.5 mph - N/A   Clear
6:48 AM 60.8 °F 60.8 °F 100% 29.77 in 1.5 mi Calm Calm - N/A   Partly Cloudy
6:53 AM 60.1 °F 60.1 °F 100% 29.77 in 8.0 mi West 3.5 mph - N/A   Scattered Clouds
7:53 AM 64.0 °F 62.1 °F 93% 29.79 in 9.0 mi NW 10.4 mph - N/A   Clear
8:53 AM 66.0 °F 61.0 °F 84% 29.81 in 7.0 mi NW 10.4 mph - N/A   Mostly Cloudy
9:53 AM 68.0 °F 57.0 °F 68% 29.82 in 9.0 mi NW 13.8 mph 20.7 mph N/A   Clear
10:53 AM 68.0 °F 57.9 °F 70% 29.83 in 9.0 mi WNW 12.7 mph - N/A   Partly Cloudy
11:53 AM 68.0 °F 55.9 °F 65% 29.82 in 10.0 mi NW 13.8 mph 23.0 mph N/A   Partly Cloudy
12:53 PM 68.0 °F 55.0 °F 63% 29.81 in 9.0 mi WNW 23.0 mph 29.9 mph N/A   Partly Cloudy
1:53 PM 68.0 °F 57.0 °F 68% 29.80 in 9.0 mi NW 19.6 mph 27.6 mph N/A   Partly Cloudy
2:53 PM 66.9 °F 55.0 °F 66% 29.80 in 10.0 mi WNW 18.4 mph 27.6 mph N/A   Partly Cloudy
3:53 PM 66.9 °F 54.0 °F 63% 29.81 in 10.0 mi NW 12.7 mph 24.2 mph N/A   Partly Cloudy
4:53 PM 64.9 °F 54.0 °F 68% 29.81 in 10.0 mi NW 16.1 mph 23.0 mph N/A   Clear
5:53 PM 63.0 °F 54.0 °F 72% 29.83 in 9.0 mi NW 13.8 mph 21.9 mph N/A   Clear
6:53 PM 61.0 °F 52.0 °F 72% 29.84 in 10.0 mi NW 15.0 mph 21.9 mph N/A   Clear
7:53 PM 60.1 °F 53.1 °F 78% 29.87 in 10.0 mi NW 12.7 mph - N/A   Clear
8:53 PM 59.0 °F 53.1 °F 81% 29.88 in 9.0 mi NW 10.4 mph - N/A   Clear
9:53 PM 59.0 °F 53.1 °F 81% 29.90 in 9.0 mi NW 8.1 mph 17.3 mph N/A   Clear
10:53 PM 57.9 °F 53.1 °F 84% 29.91 in 10.0 mi NW 6.9 mph - N/A   Partly Cloudy
11:53 PM 55.9 °F 52.0 °F 87% 29.91 in 8.0 mi North 8.1 mph - N/A   Clear